Regional Weather Roundup
Issued by NWS

Home | Current Version | Previous Version | Text Only | Print | Product List | Glossary On
Versions: 1 2 3 4 5 6 7 8 9 10 11 12 13 14 15 16 17 18 19 20 21 22 23 24 25 26 27 28 29 30 31 32 33 34 35 36 37 38 39 40 41 42 43 44 45 46 47 48 49 50
000
ASUS43 KLSX 272157
RWRMO

WEATHER SUMMARY FOR MISSOURI
NATIONAL WEATHER SERVICE SPRINGFIELD MO
500 PM CDT TUE SEP 27 2016

NOTE: "FAIR" INDICATES FEW OR NO CLOUDS BELOW 12,000 FEET WITH NO
       SIGNIFICANT WEATHER AND/OR OBSTRUCTIONS TO VISIBILITY.
       CURRENT SKY AND/OR WEATHER CONDITIONS ARE NOT AVAILABLE FOR
       CHILLICOTHE AND FARMINGTON.

MOZ001>031-035>038-043-044-053-054-272300-
...NORTHERN AND WESTERN MISSOURI...

CITY           SKY/WX    TMP DP  RH WIND       PRES   REMARKS
KANSAS CTY INT SUNNY     78  52  40 W8        29.89F
LEE`S SUMMIT   SUNNY     79  49  34 W10       29.90F
ST JOSEPH      SUNNY     80  45  28 W10       29.88F
CHILLICOTHE      N/A     78  49  35 W8        29.87F

$$
MOZ066>068-077>081-088>096-101>105-272300-
...SOUTHWEST MISSOURI...

CITY           SKY/WX    TMP DP  RH WIND       PRES   REMARKS
SPRINGFIELD    SUNNY     80  43  26 SW9       29.95F
JOPLIN         SUNNY     80  49  33 SW12      29.96F
BRANSON        SUNNY     77  45  31 NW7       30.00F

$$
MOZ032>034-039>042-045>050-055>058-069>072-272300-
...CENTRAL MISSOURI...

CITY           SKY/WX    TMP DP  RH WIND       PRES   REMARKS
COLUMBIA       NOT AVBL
JEFFERSON CITY SUNNY     80  48  32 W10       29.87F
ROLLA          SUNNY     77  50  38 SW10      29.90F
SEDALIA        SUNNY     82  49  31 W10       29.89F

$$
MOZ051-052-059>065-272300-
...EAST CENTRAL MISSOURI...

CITY           SKY/WX    TMP DP  RH WIND       PRES   REMARKS
ST LOUIS INTL  MOSUNNY   80  45  28 W17       29.86F

$$
MOZ072>076-082>087-097>100-106>115-272300-
...SOUTH CENTRAL AND SOUTHEAST MISSOURI...

CITY           SKY/WX    TMP DP  RH WIND       PRES   REMARKS
CAPE GIRARDEAU SUNNY     77  49  37 W9        29.91F
POPLAR BLUFF   SUNNY     79  50  36 SW6       29.92F

$$


USA.gov is the U.S. government's official web portal to all federal, state and local government web resources and services.